When you browse on this site, cookies collect data to enhance your experience and personalize the content and advertising you see.
Visit our Privacy Policy to learn more. By continuing to use the site, you agree to this use of cookies and data.
  • In Denmark
  • List of Countries
  • For 7 days
  • Water Temperature
  • Satellite Maps
  • Weather Map
  • Weather Widgets
  • user-avatar
    Login

    Hourly Weather Crete

    Today, 16 June, Sunday

    Time Temperature Precipitation Wind Pressure Humidity
    00:00 +20°C° 0 mm 4 mps 705 mmHg 66%
    01:00 +20°C° 0 mm 4 mps 705 mmHg 66%
    02:00 +20°C° 0 mm 3 mps 705 mmHg 67%
    03:00 +20°C° 0 mm 4 mps 704 mmHg 69%
    04:00 +20°C° 0 mm 4 mps 704 mmHg 71%
    05:00 +20°C° 0 mm 4 mps 704 mmHg 73%
    06:00 +21°C° 0.1 mm 4 mps 704 mmHg 70%
    07:00 +22°C° 0.1 mm 5 mps 705 mmHg 66%
    08:00 +23°C° 0.1 mm 5 mps 705 mmHg 62%
    09:00 +25°C° 0 mm 5 mps 706 mmHg 59%
    10:00 +26°C° 0 mm 6 mps 706 mmHg 55%
    11:00 +27°C° 0 mm 6 mps 706 mmHg 51%
    12:00 +27°C° 0 mm 6 mps 706 mmHg 50%
    13:00 +28°C° 0 mm 5 mps 706 mmHg 48%
    14:00 +28°C° 0 mm 5 mps 706 mmHg 46%
    15:00 +27°C° 0 mm 5 mps 706 mmHg 46%
    16:00 +27°C° 0 mm 6 mps 706 mmHg 45%
    17:00 +27°C° 0 mm 6 mps 706 mmHg 45%
    18:00 +25°C° 0 mm 5 mps 705 mmHg 49%
    19:00 +23°C° 0 mm 4 mps 705 mmHg 52%
    20:00 +21°C° 0 mm 3 mps 705 mmHg 56%
    21:00 +21°C° 0 mm 3 mps 705 mmHg 57%
    22:00 +21°C° 0 mm 3 mps 705 mmHg 59%
    23:00 +20°C° 0 mm 3 mps 705 mmHg 60%

    Tomorrow, 17 June, Monday

    Time Temperature Precipitation Wind Pressure Humidity
    00:00 +20°C° 0 mm 3 mps 705 mmHg 61%
    01:00 +20°C° 0 mm 3 mps 705 mmHg 62%
    02:00 +20°C° 0 mm 3 mps 704 mmHg 63%
    03:00 +19°C° 0 mm 3 mps 704 mmHg 63%
    04:00 +19°C° 0 mm 3 mps 704 mmHg 62%
    05:00 +19°C° 0 mm 3 mps 704 mmHg 62%
    06:00 +21°C° 0 mm 3 mps 705 mmHg 55%
    07:00 +25°C° 0 mm 3 mps 705 mmHg 48%
    08:00 +27°C° 0 mm 3 mps 706 mmHg 41%
    09:00 +28°C° 0 mm 4 mps 706 mmHg 38%
    10:00 +29°C° 0 mm 4 mps 706 mmHg 35%
    11:00 +29°C° 0 mm 4 mps 707 mmHg 33%
    12:00 +30°C° 0 mm 4 mps 707 mmHg 32%
    13:00 +30°C° 0 mm 5 mps 707 mmHg 32%
    14:00 +30°C° 0 mm 5 mps 707 mmHg 31%
    15:00 +29°C° 0 mm 5 mps 706 mmHg 33%
    16:00 +29°C° 0 mm 4 mps 706 mmHg 35%
    17:00 +28°C° 0 mm 4 mps 706 mmHg 37%
    18:00 +26°C° 0 mm 3 mps 706 mmHg 43%
    19:00 +24°C° 0 mm 2 mps 706 mmHg 48%
    20:00 +22°C° 0 mm 1 mps 706 mmHg 54%
    21:00 +21°C° 0 mm 2 mps 706 mmHg 53%
    22:00 +20°C° 0 mm 2 mps 706 mmHg 52%
    23:00 +20°C° 0 mm 2 mps 706 mmHg 50%

    Day after tomorrow, 18 June, Tuesday

    Time Temperature Precipitation Wind Pressure Humidity
    00:00 +20°C° 0 mm 2 mps 705 mmHg 49%
    01:00 +20°C° 0 mm 2 mps 705 mmHg 48%
    02:00 +20°C° 0 mm 2 mps 705 mmHg 47%
    03:00 +20°C° 0 mm 2 mps 705 mmHg 48%
    04:00 +20°C° 0 mm 2 mps 705 mmHg 48%
    05:00 +20°C° 0 mm 2 mps 705 mmHg 48%
    06:00 +23°C° 0 mm 2 mps 706 mmHg 45%
    07:00 +25°C° 0 mm 2 mps 706 mmHg 42%
    08:00 +27°C° 0 mm 2 mps 707 mmHg 38%
    09:00 +28°C° 0 mm 3 mps 707 mmHg 37%
    10:00 +29°C° 0 mm 3 mps 708 mmHg 35%
    11:00 +30°C° 0 mm 4 mps 708 mmHg 33%
    12:00 +30°C° 0 mm 3 mps 708 mmHg 34%
    13:00 +30°C° 0 mm 3 mps 708 mmHg 34%
    14:00 +30°C° 0 mm 3 mps 708 mmHg 34%
    15:00 +29°C° 0 mm 3 mps 707 mmHg 36%
    16:00 +29°C° 0 mm 3 mps 707 mmHg 38%
    17:00 +28°C° 0 mm 3 mps 707 mmHg 40%
    18:00 +26°C° 0 mm 2 mps 707 mmHg 48%
    19:00 +24°C° 0 mm 2 mps 706 mmHg 56%
    20:00 +22°C° 0 mm 1 mps 706 mmHg 63%
    21:00 +22°C° 0 mm 1 mps 706 mmHg 60%
    22:00 +22°C° 0 mm 1 mps 706 mmHg 57%
    23:00 +22°C° 0 mm 1 mps 706 mmHg 54%

    19 June, Wednesday

    Time Temperature Precipitation Wind Pressure Humidity
    00:00 +22°C° 0 mm 1 mps 706 mmHg 55%
    01:00 +20°C° 0 mm 2 mps 706 mmHg 55%
    02:00 +20°C° 0 mm 2 mps 705 mmHg 55%
    03:00 +20°C° 0 mm 2 mps 705 mmHg 58%
    04:00 +20°C° 0 mm 2 mps 705 mmHg 60%
    05:00 +19°C° 0 mm 2 mps 705 mmHg 63%
    06:00 +23°C° 0 mm 2 mps 706 mmHg 55%
    07:00 +25°C° 0 mm 2 mps 706 mmHg 48%
    08:00 +27°C° 0 mm 2 mps 707 mmHg 40%
    09:00 +28°C° 0 mm 3 mps 707 mmHg 39%
    10:00 +29°C° 0 mm 3 mps 707 mmHg 37%
    11:00 +30°C° 0 mm 3 mps 707 mmHg 35%
    12:00 +29°C° 0 mm 3 mps 707 mmHg 36%
    13:00 +29°C° 0 mm 3 mps 707 mmHg 37%
    14:00 +29°C° 0 mm 3 mps 707 mmHg 38%
    15:00 +29°C° 0 mm 3 mps 707 mmHg 39%
    16:00 +28°C° 0 mm 3 mps 707 mmHg 41%
    17:00 +28°C° 0 mm 3 mps 706 mmHg 43%
    18:00 +26°C° 0 mm 3 mps 706 mmHg 52%
    19:00 +23°C° 0 mm 2 mps 706 mmHg 60%
    20:00 +20°C° 0 mm 2 mps 706 mmHg 69%
    21:00 +20°C° 0 mm 2 mps 706 mmHg 66%
    22:00 +20°C° 0 mm 2 mps 706 mmHg 64%
    23:00 +20°C° 0 mm 2 mps 706 mmHg 61%

    20 June, Thursday

    Time Temperature Precipitation Wind Pressure Humidity
    00:00 +20°C° 0 mm 2 mps 705 mmHg 61%
    01:00 +20°C° 0 mm 2 mps 705 mmHg 61%
    02:00 +20°C° 0 mm 2 mps 705 mmHg 61%
    03:00 +19°C° 0 mm 2 mps 704 mmHg 63%
    04:00 +19°C° 0 mm 2 mps 704 mmHg 64%
    05:00 +19°C° 0 mm 2 mps 704 mmHg 65%
    06:00 +21°C° 0 mm 3 mps 705 mmHg 57%
    07:00 +24°C° 0 mm 3 mps 705 mmHg 50%
    08:00 +26°C° 0 mm 3 mps 706 mmHg 43%
    09:00 +27°C° 0 mm 3 mps 706 mmHg 41%
    10:00 +28°C° 0 mm 4 mps 706 mmHg 40%
    11:00 +29°C° 0 mm 4 mps 706 mmHg 39%
    12:00 +29°C° 0 mm 4 mps 706 mmHg 39%
    13:00 +29°C° 0 mm 5 mps 706 mmHg 39%
    14:00 +29°C° 0 mm 5 mps 706 mmHg 39%
    15:00 +28°C° 0 mm 5 mps 706 mmHg 38%
    16:00 +28°C° 0 mm 5 mps 706 mmHg 37%
    17:00 +27°C° 0 mm 5 mps 706 mmHg 37%
    18:00 +25°C° 0 mm 4 mps 706 mmHg 42%
    19:00 +22°C° 0 mm 4 mps 705 mmHg 47%
    20:00 +20°C° 0 mm 3 mps 705 mmHg 52%
    21:00 +20°C° 0 mm 3 mps 705 mmHg 54%
    22:00 +20°C° 0 mm 3 mps 705 mmHg 56%
    23:00 +19°C° 0 mm 3 mps 705 mmHg 58%

    21 June, Friday

    Time Temperature Precipitation Wind Pressure Humidity
    00:00 +19°C° 0 mm 3 mps 705 mmHg 59%
    01:00 +19°C° 0 mm 3 mps 705 mmHg 60%
    02:00 +19°C° 0 mm 3 mps 705 mmHg 61%
    03:00 +19°C° 0 mm 3 mps 704 mmHg 63%
    04:00 +19°C° 0 mm 3 mps 704 mmHg 65%
    05:00 +19°C° 0 mm 4 mps 704 mmHg 67%
    06:00 +21°C° 0 mm 4 mps 705 mmHg 60%
    07:00 +23°C° 0 mm 5 mps 705 mmHg 53%
    08:00 +26°C° 0 mm 5 mps 706 mmHg 46%
    09:00 +27°C° 0 mm 5 mps 706 mmHg 43%
    10:00 +28°C° 0 mm 5 mps 706 mmHg 40%
    11:00 +29°C° 0 mm 5 mps 706 mmHg 37%
    12:00 +29°C° 0 mm 6 mps 706 mmHg 37%
    13:00 +29°C° 0 mm 6 mps 706 mmHg 37%
    14:00 +29°C° 0 mm 6 mps 706 mmHg 37%
    15:00 +28°C° 0 mm 6 mps 706 mmHg 39%
    16:00 +28°C° 0 mm 6 mps 706 mmHg 42%
    17:00 +27°C° 0 mm 6 mps 705 mmHg 44%
    18:00 +26°C° 0 mm 5 mps 705 mmHg 50%
    19:00 +23°C° 0 mm 4 mps 705 mmHg 56%
    20:00 +21°C° 0 mm 4 mps 705 mmHg 61%
    21:00 +21°C° 0 mm 3 mps 705 mmHg 63%
    22:00 +21°C° 0 mm 3 mps 705 mmHg 64%
    23:00 +21°C° 0 mm 3 mps 705 mmHg 65%
    Show more